Wetterdaten: Samstag, 25.10.2014
Datum Zeit Temp. A. Feuchte A. Luftdruck Regen Wind Richtung Richtung Sonnenschein ET UV Solar Taupunkt Windchill Windben Empfang
25.10.2014 00:00 6,7 C 85 % 1021,0 hPa 0,0 l/m 0,4 km/h (0 Bft) O 87 0 min 0,000 mm 0,0 UV-I 0 W/m 4,4 C 6,7 C 4,0 km/h (1 Bft) 0,00 %
25.10.2014 00:15 6,7 C 85 % 1021,0 hPa 0,0 l/m 0,0 km/h (0 Bft) SO 130 0 min 0,000 mm 0,0 UV-I 0 W/m 4,4 C 6,7 C 0,0 km/h (0 Bft) 0,00 %
25.10.2014 00:30 6,7 C 85 % 1020,9 hPa 0,0 l/m 0,0 km/h (0 Bft) O 101 0 min 0,000 mm 0,0 UV-I 0 W/m 4,4 C 6,7 C 0,0 km/h (0 Bft) 0,00 %
25.10.2014 00:45 6,6 C 85 % 1020,8 hPa 0,0 l/m 1,8 km/h (1 Bft) O-SO 106 0 min 0,000 mm 0,0 UV-I 0 W/m 4,3 C 6,6 C 4,0 km/h (1 Bft) 0,00 %
25.10.2014 01:00 6,4 C 85 % 1020,7 hPa 0,0 l/m 0,0 km/h (0 Bft) W-NW 288 0 min 0,000 mm 0,0 UV-I 0 W/m 4,1 C 6,4 C 0,0 km/h (0 Bft) 0,00 %
25.10.2014 01:15 6,1 C 85 % 1020,5 hPa 0,0 l/m 0,0 km/h (0 Bft) S 177 0 min 0,000 mm 0,0 UV-I 0 W/m 3,8 C 6,1 C 0,0 km/h (0 Bft) 0,00 %
25.10.2014 01:30 5,8 C 84 % 1020,6 hPa 0,0 l/m 0,0 km/h (0 Bft) S 177 0 min 0,000 mm 0,0 UV-I 0 W/m 3,3 C 5,8 C 0,0 km/h (0 Bft) 0,00 %
25.10.2014 01:45 5,2 C 85 % 1020,8 hPa 0,0 l/m 0,0 km/h (0 Bft) S-SW 198 0 min 0,000 mm 0,0 UV-I 0 W/m 2,9 C 5,2 C 0,0 km/h (0 Bft) 0,00 %
25.10.2014 02:00 4,9 C 85 % 1020,7 hPa 0,0 l/m 0,0 km/h (0 Bft) S 173 0 min 0,000 mm 0,0 UV-I 0 W/m 2,6 C 4,9 C 0,0 km/h (0 Bft) 0,00 %
25.10.2014 02:15 4,9 C 86 % 1020,6 hPa 0,0 l/m 0,0 km/h (0 Bft) S 172 0 min 0,000 mm 0,0 UV-I 0 W/m 2,8 C 4,9 C 0,0 km/h (0 Bft) 0,00 %
25.10.2014 02:30 4,8 C 86 % 1020,9 hPa 0,0 l/m 0,0 km/h (0 Bft) S-SO 149 0 min 0,000 mm 0,0 UV-I 0 W/m 2,7 C 4,8 C 0,0 km/h (0 Bft) 0,00 %
25.10.2014 02:45 4,7 C 86 % 1020,7 hPa 0,0 l/m 0,0 km/h (0 Bft) S 178 0 min 0,000 mm 0,0 UV-I 0 W/m 2,6 C 4,7 C 0,0 km/h (0 Bft) 0,00 %
25.10.2014 03:00 4,6 C 86 % 1020,7 hPa 0,0 l/m 0,0 km/h (0 Bft) S-SW 204 0 min 0,000 mm 0,0 UV-I 0 W/m 2,5 C 4,6 C 0,0 km/h (0 Bft) 0,00 %
25.10.2014 03:15 4,8 C 86 % 1020,5 hPa 0,0 l/m 0,0 km/h (0 Bft) O 91 0 min 0,000 mm 0,0 UV-I 0 W/m 2,7 C 4,8 C 0,0 km/h (0 Bft) 0,00 %
25.10.2014 03:30 5,2 C 86 % 1020,4 hPa 0,0 l/m 0,4 km/h (0 Bft) S 172 0 min 0,000 mm 0,0 UV-I 0 W/m 3,1 C 5,2 C 4,0 km/h (1 Bft) 0,00 %
25.10.2014 03:45 5,5 C 86 % 1020,1 hPa 0,0 l/m 2,9 km/h (1 Bft) O 98 0 min 0,000 mm 0,0 UV-I 0 W/m 3,3 C 5,5 C 4,0 km/h (1 Bft) 0,00 %
25.10.2014 04:00 5,6 C 86 % 1020,1 hPa 0,0 l/m 0,0 km/h (0 Bft) O-SO 111 0 min 0,000 mm 0,0 UV-I 0 W/m 3,4 C 5,6 C 0,0 km/h (0 Bft) 0,00 %
25.10.2014 04:15 5,4 C 86 % 1020,1 hPa 0,0 l/m 0,0 km/h (0 Bft) S 169 0 min 0,000 mm 0,0 UV-I 0 W/m 3,3 C 5,4 C 0,0 km/h (0 Bft) 0,00 %
25.10.2014 04:30 5,2 C 86 % 1020,4 hPa 0,0 l/m 2,2 km/h (1 Bft) O 98 0 min 0,000 mm 0,0 UV-I 0 W/m 3,1 C 5,2 C 4,0 km/h (1 Bft) 0,00 %
25.10.2014 04:45 5,2 C 86 % 1020,3 hPa 0,0 l/m 2,2 km/h (1 Bft) SO 145 0 min 0,000 mm 0,0 UV-I 0 W/m 3,1 C 5,2 C 4,0 km/h (1 Bft) 0,00 %
25.10.2014 05:00 5,0 C 86 % 1020,4 hPa 0,0 l/m 0,0 km/h (0 Bft) O 85 0 min 0,000 mm 0,0 UV-I 0 W/m 2,9 C 5,0 C 0,0 km/h (0 Bft) 0,00 %
25.10.2014 05:15 4,9 C 86 % 1020,5 hPa 0,0 l/m 0,7 km/h (0 Bft) O-SO 116 0 min 0,000 mm 0,0 UV-I 0 W/m 2,8 C 4,9 C 4,0 km/h (1 Bft) 0,00 %
25.10.2014 05:30 4,8 C 86 % 1020,5 hPa 0,0 l/m 0,7 km/h (0 Bft) SO 140 0 min 0,000 mm 0,0 UV-I 0 W/m 2,7 C 4,8 C 4,0 km/h (1 Bft) 0,00 %
25.10.2014 05:45 4,6 C 86 % 1020,5 hPa 0,0 l/m 0,0 km/h (0 Bft) NO 40 0 min 0,000 mm 0,0 UV-I 0 W/m 2,5 C 4,6 C 0,0 km/h (0 Bft) 0,00 %
25.10.2014 06:00 4,4 C 86 % 1020,7 hPa 0,0 l/m 0,0 km/h (0 Bft) S 180 0 min 0,000 mm 0,0 UV-I 0 W/m 2,3 C 4,4 C 0,0 km/h (0 Bft) 0,00 %
25.10.2014 06:15 4,3 C 86 % 1020,7 hPa 0,0 l/m 0,0 km/h (0 Bft) S 187 0 min 0,000 mm 0,0 UV-I 0 W/m 2,2 C 4,3 C 0,0 km/h (0 Bft) 0,00 %
25.10.2014 06:30 4,3 C 86 % 1020,8 hPa 0,0 l/m 0,7 km/h (0 Bft) O-SO 118 0 min 0,000 mm 0,0 UV-I 0 W/m 2,2 C 4,3 C 4,0 km/h (1 Bft) 0,00 %
25.10.2014 06:45 4,2 C 86 % 1020,8 hPa 0,0 l/m 0,0 km/h (0 Bft) S 183 0 min 0,000 mm 0,0 UV-I 0 W/m 2,1 C 4,2 C 0,0 km/h (0 Bft) 0,00 %
25.10.2014 07:00 4,2 C 86 % 1021,1 hPa 0,0 l/m 2,9 km/h (1 Bft) O-SO 108 0 min 0,000 mm 0,0 UV-I 0 W/m 2,1 C 4,2 C 4,0 km/h (1 Bft) 0,00 %
25.10.2014 07:15 4,2 C 85 % 1021,1 hPa 0,0 l/m 3,2 km/h (1 Bft) O-SO 105 0 min 0,000 mm 0,0 UV-I 0 W/m 1,9 C 4,2 C 4,0 km/h (1 Bft) 0,00 %
25.10.2014 07:30 4,1 C 85 % 1021,0 hPa 0,0 l/m 1,4 km/h (1 Bft) S-SO 148 0 min 0,000 mm 0,0 UV-I 0 W/m 1,8 C 4,1 C 4,0 km/h (1 Bft) 0,00 %
25.10.2014 07:45 4,1 C 85 % 1021,0 hPa 0,0 l/m 1,4 km/h (1 Bft) O-SO 110 0 min 0,000 mm 0,0 UV-I 0 W/m 1,8 C 4,1 C 4,0 km/h (1 Bft) 0,00 %
25.10.2014 08:00 4,1 C 85 % 1021,4 hPa 0,0 l/m 0,4 km/h (0 Bft) O-SO 123 0 min 0,000 mm 0,0 UV-I 0 W/m 1,8 C 4,1 C 4,0 km/h (1 Bft) 0,00 %
25.10.2014 08:15 4,3 C 86 % 1021,6 hPa 0,0 l/m 0,0 km/h (0 Bft) S-SW 193 0 min 0,000 mm 0,0 UV-I 0 W/m 2,2 C 4,3 C 0,0 km/h (0 Bft) 0,00 %
25.10.2014 08:30 4,3 C 86 % 1021,6 hPa 0,0 l/m 0,4 km/h (0 Bft) O-SO 119 0 min 0,000 mm 0,0 UV-I 14 W/m 2,2 C 4,3 C 4,0 km/h (1 Bft) 0,00 %
25.10.2014 08:45 4,5 C 84 % 1021,7 hPa 0,0 l/m 0,0 km/h (0 Bft) S 172 0 min 0,000 mm 0,0 UV-I 34 W/m 2,0 C 4,5 C 0,0 km/h (0 Bft) 0,00 %
25.10.2014 09:00 4,5 C 84 % 1021,6 hPa 0,0 l/m 0,0 km/h (0 Bft) SO 137 0 min 0,000 mm 0,0 UV-I 58 W/m 2,0 C 4,5 C 0,0 km/h (0 Bft) 0,00 %
25.10.2014 09:15 4,6 C 84 % 1021,7 hPa 0,0 l/m 0,0 km/h (0 Bft) S-SW 204 0 min 0,000 mm 0,0 UV-I 88 W/m 2,1 C 4,6 C 0,0 km/h (0 Bft) 0,00 %
25.10.2014 09:30 4,7 C 83 % 1021,9 hPa 0,0 l/m 0,0 km/h (0 Bft) W-NW 301 0 min 0,000 mm 1,0 UV-I 144 W/m 2,1 C 4,7 C 0,0 km/h (0 Bft) 0,00 %
25.10.2014 09:45 4,8 C 82 % 1021,9 hPa 0,0 l/m 4,3 km/h (1 Bft) O 88 0 min 0,000 mm 1,0 UV-I 143 W/m 2,0 C 4,8 C 7,9 km/h (2 Bft) 0,00 %
25.10.2014 10:00 4,8 C 82 % 1021,9 hPa 0,0 l/m 2,9 km/h (1 Bft) O 82 15 min 0,000 mm 1,0 UV-I 218 W/m 2,0 C 4,8 C 4,0 km/h (1 Bft) 0,00 %
25.10.2014 10:15 4,8 C 82 % 1021,9 hPa 0,0 l/m 2,9 km/h (1 Bft) SO 129 15 min 0,000 mm 1,0 UV-I 199 W/m 2,0 C 4,8 C 7,9 km/h (2 Bft) 0,00 %
25.10.2014 10:30 5,0 C 82 % 1021,9 hPa 0,0 l/m 0,0 km/h (0 Bft) S 183 15 min 0,000 mm 1,0 UV-I 215 W/m 2,2 C 5,0 C 0,0 km/h (0 Bft) 0,00 %
25.10.2014 10:45 5,1 C 81 % 1022,1 hPa 0,0 l/m 0,0 km/h (0 Bft) S 172 15 min 0,000 mm 1,0 UV-I 247 W/m 2,1 C 5,1 C 0,0 km/h (0 Bft) 0,00 %
25.10.2014 11:00 5,1 C 81 % 1022,2 hPa 0,0 l/m 0,0 km/h (0 Bft) SO 142 15 min 0,000 mm 1,0 UV-I 337 W/m 2,1 C 5,1 C 0,0 km/h (0 Bft) 0,00 %
25.10.2014 11:15 5,4 C 79 % 1022,1 hPa 0,0 l/m 0,0 km/h (0 Bft) O 99 15 min 0,000 mm 1,0 UV-I 362 W/m 2,1 C 5,4 C 0,0 km/h (0 Bft) 0,00 %
25.10.2014 11:30 5,4 C 79 % 1022,0 hPa 0,0 l/m 0,0 km/h (0 Bft) S 188 15 min 0,000 mm 1,0 UV-I 372 W/m 2,1 C 5,4 C 0,0 km/h (0 Bft) 0,00 %
25.10.2014 11:45 5,9 C 79 % 1022,0 hPa 0,0 l/m 0,0 km/h (0 Bft) S 178 15 min 0,000 mm 1,0 UV-I 428 W/m 2,5 C 5,9 C 0,0 km/h (0 Bft) 0,00 %
25.10.2014 12:00 6,1 C 77 % 1021,9 hPa 0,0 l/m 0,0 km/h (0 Bft) N 353 15 min 0,000 mm 1,0 UV-I 477 W/m 2,4 C 6,1 C 0,0 km/h (0 Bft) 0,00 %
25.10.2014 12:15 6,2 C 76 % 1022,0 hPa 0,0 l/m 0,0 km/h (0 Bft) SO 138 15 min 0,000 mm 1,0 UV-I 468 W/m 2,3 C 6,2 C 0,0 km/h (0 Bft) 0,00 %
25.10.2014 12:30 6,5 C 75 % 1021,7 hPa 0,0 l/m 0,4 km/h (0 Bft) O-SO 120 15 min 0,000 mm 1,0 UV-I 467 W/m 2,4 C 6,5 C 4,0 km/h (1 Bft) 0,00 %
25.10.2014 12:45 6,6 C 75 % 1021,7 hPa 0,0 l/m 0,0 km/h (0 Bft) S-SW 210 15 min 0,000 mm 1,0 UV-I 498 W/m 2,5 C 6,6 C 0,0 km/h (0 Bft) 0,00 %
25.10.2014 13:00 7,0 C 72 % 1021,6 hPa 0,0 l/m 2,2 km/h (1 Bft) O-NO 75 15 min 0,000 mm 1,0 UV-I 470 W/m 2,3 C 7,0 C 4,0 km/h (1 Bft) 0,00 %
25.10.2014 13:15 6,3 C 75 % 1021,6 hPa 0,0 l/m 0,0 km/h (0 Bft) O-NO 62 15 min 0,000 mm 2,0 UV-I 562 W/m 2,2 C 6,3 C 0,0 km/h (0 Bft) 0,00 %
25.10.2014 13:30 6,6 C 73 % 1021,6 hPa 0,0 l/m 0,0 km/h (0 Bft) SO 137 15 min 0,000 mm 1,0 UV-I 537 W/m 2,1 C 6,6 C 0,0 km/h (0 Bft) 0,00 %
25.10.2014 13:45 6,9 C 73 % 1021,6 hPa 0,0 l/m 0,0 km/h (0 Bft) O-NO 65 15 min 0,000 mm 1,0 UV-I 482 W/m 2,4 C 6,9 C 0,0 km/h (0 Bft) 0,00 %
25.10.2014 14:00 6,2 C 76 % 1021,6 hPa 0,0 l/m 0,0 km/h (0 Bft) W-SW 256 15 min 0,000 mm 1,0 UV-I 354 W/m 2,3 C 6,2 C 0,0 km/h (0 Bft) 0,00 %
25.10.2014 14:15 6,6 C 74 % 1021,5 hPa 0,0 l/m 0,4 km/h (0 Bft) N-NW 347 15 min 0,000 mm 1,0 UV-I 299 W/m 2,3 C 6,6 C 4,0 km/h (1 Bft) 0,00 %
25.10.2014 14:30 6,5 C 75 % 1021,3 hPa 0,0 l/m 2,9 km/h (1 Bft) O-SO 119 15 min 0,000 mm 1,0 UV-I 375 W/m 2,4 C 6,5 C 4,0 km/h (1 Bft) 0,00 %
25.10.2014 14:45 6,6 C 76 % 1021,5 hPa 0,0 l/m 0,0 km/h (0 Bft) S-SO 168 15 min 0,000 mm 1,0 UV-I 425 W/m 2,7 C 6,6 C 0,0 km/h (0 Bft) 0,00 %
25.10.2014 15:00 6,6 C 76 % 1021,4 hPa 0,0 l/m 0,0 km/h (0 Bft) NO 50 15 min 0,000 mm 1,0 UV-I 392 W/m 2,7 C 6,6 C 0,0 km/h (0 Bft) 0,00 %
25.10.2014 15:15 7,2 C 75 % 1021,1 hPa 0,0 l/m 0,7 km/h (0 Bft) S 179 15 min 0,000 mm 1,0 UV-I 326 W/m 3,1 C 7,2 C 4,0 km/h (1 Bft) 0,00 %
25.10.2014 15:30 7,0 C 74 % 1021,3 hPa 0,0 l/m 0,0 km/h (0 Bft) O-SO 112 15 min 0,000 mm 1,0 UV-I 291 W/m 2,7 C 7,0 C 0,0 km/h (0 Bft) 0,00 %
25.10.2014 15:45 7,2 C 75 % 1021,2 hPa 0,0 l/m 0,0 km/h (0 Bft) S 179 15 min 0,000 mm 1,0 UV-I 308 W/m 3,1 C 7,2 C 0,0 km/h (0 Bft) 0,00 %
25.10.2014 16:00 7,4 C 74 % 1021,5 hPa 0,0 l/m 0,0 km/h (0 Bft) W-SW 256 15 min 0,000 mm 1,0 UV-I 222 W/m 3,1 C 7,4 C 0,0 km/h (0 Bft) 0,00 %
25.10.2014 16:15 7,0 C 75 % 1021,5 hPa 0,0 l/m 0,0 km/h (0 Bft) SO 136 15 min 0,000 mm 1,0 UV-I 264 W/m 2,9 C 7,0 C 0,0 km/h (0 Bft) 0,00 %
25.10.2014 16:30 6,9 C 76 % 1021,8 hPa 0,0 l/m 0,0 km/h (0 Bft) SW 226 15 min 0,000 mm 1,0 UV-I 210 W/m 3,0 C 6,9 C 0,0 km/h (0 Bft) 0,00 %
25.10.2014 16:45 6,7 C 76 % 1021,7 hPa 0,0 l/m 0,0 km/h (0 Bft) S-SW 208 15 min 0,000 mm 1,0 UV-I 183 W/m 2,8 C 6,7 C 0,0 km/h (0 Bft) 0,00 %
25.10.2014 17:00 6,4 C 78 % 1021,7 hPa 0,0 l/m 0,0 km/h (0 Bft) SW 221 15 min 0,000 mm 1,0 UV-I 119 W/m 2,8 C 6,4 C 0,0 km/h (0 Bft) 0,00 %
25.10.2014 17:15 5,9 C 79 % 1021,9 hPa 0,0 l/m 0,0 km/h (0 Bft) S 180 15 min 0,000 mm 0,0 UV-I 70 W/m 2,5 C 5,9 C 0,0 km/h (0 Bft) 0,00 %
25.10.2014 17:30 5,5 C 81 % 1021,9 hPa 0,0 l/m 0,0 km/h (0 Bft) SW 218 0 min 0,000 mm 0,0 UV-I 14 W/m 2,5 C 5,5 C 0,0 km/h (0 Bft) 0,00 %
25.10.2014 17:45 5,2 C 82 % 1022,1 hPa 0,0 l/m 0,0 km/h (0 Bft) S-SW 212 0 min 0,000 mm 0,0 UV-I 0 W/m 2,4 C 5,2 C 0,0 km/h (0 Bft) 0,00 %
25.10.2014 18:00 5,0 C 83 % 1022,3 hPa 0,0 l/m 0,0 km/h (0 Bft) SW 218 0 min 0,000 mm 0,0 UV-I 0 W/m 2,4 C 5,0 C 0,0 km/h (0 Bft) 0,00 %
25.10.2014 18:15 4,7 C 83 % 1022,5 hPa 0,0 l/m 0,0 km/h (0 Bft) S 173 0 min 0,000 mm 0,0 UV-I 0 W/m 2,1 C 4,7 C 0,0 km/h (0 Bft) 0,00 %
25.10.2014 18:30 4,4 C 84 % 1023,1 hPa 0,0 l/m 0,0 km/h (0 Bft) S-SW 197 0 min 0,000 mm 0,0 UV-I 0 W/m 1,9 C 4,4 C 0,0 km/h (0 Bft) 0,00 %
25.10.2014 18:45 4,2 C 85 % 1023,1 hPa 0,0 l/m 0,0 km/h (0 Bft) SW 229 0 min 0,000 mm 0,0 UV-I 0 W/m 1,9 C 4,2 C 0,0 km/h (0 Bft) 0,00 %
25.10.2014 19:00 4,2 C 84 % 1023,3 hPa 0,0 l/m 0,0 km/h (0 Bft) O-SO 119 0 min 0,000 mm 0,0 UV-I 0 W/m 1,7 C 4,2 C 0,0 km/h (0 Bft) 0,00 %
25.10.2014 19:15 4,5 C 85 % 1023,4 hPa 0,0 l/m 0,0 km/h (0 Bft) S 174 0 min 0,000 mm 0,0 UV-I 0 W/m 2,2 C 4,5 C 0,0 km/h (0 Bft) 0,00 %
25.10.2014 19:30 4,9 C 85 % 1023,6 hPa 0,0 l/m 0,0 km/h (0 Bft) O-SO 121 0 min 0,000 mm 0,0 UV-I 0 W/m 2,6 C 4,9 C 0,0 km/h (0 Bft) 0,00 %
25.10.2014 19:45 5,0 C 84 % 1023,4 hPa 0,0 l/m 0,0 km/h (0 Bft) SW 234 0 min 0,000 mm 0,0 UV-I 0 W/m 2,5 C 5,0 C 0,0 km/h (0 Bft) 0,00 %
25.10.2014 20:00 5,1 C 84 % 1023,5 hPa 0,0 l/m 0,0 km/h (0 Bft) O-NO 65 0 min 0,000 mm 0,0 UV-I 0 W/m 2,6 C 5,1 C 0,0 km/h (0 Bft) 0,00 %
25.10.2014 20:15 5,1 C 84 % 1023,5 hPa 0,0 l/m 0,0 km/h (0 Bft) S-SW 210 0 min 0,000 mm 0,0 UV-I 0 W/m 2,6 C 5,1 C 0,0 km/h (0 Bft) 0,00 %
25.10.2014 20:30 5,1 C 83 % 1023,6 hPa 0,0 l/m 0,0 km/h (0 Bft) S 175 0 min 0,000 mm 0,0 UV-I 0 W/m 2,5 C 5,1 C 0,0 km/h (0 Bft) 0,00 %
25.10.2014 20:45 4,9 C 83 % 1023,8 hPa 0,0 l/m 0,0 km/h (0 Bft) S-SW 198 0 min 0,000 mm 0,0 UV-I 0 W/m 2,3 C 4,9 C 0,0 km/h (0 Bft) 0,00 %
25.10.2014 21:00 4,7 C 84 % 1023,9 hPa 0,0 l/m 0,0 km/h (0 Bft) NO 55 0 min 0,000 mm 0,0 UV-I 0 W/m 2,2 C 4,7 C 0,0 km/h (0 Bft) 0,00 %
25.10.2014 21:15 4,5 C 85 % 1024,0 hPa 0,0 l/m 0,0 km/h (0 Bft) S 173 0 min 0,000 mm 0,0 UV-I 0 W/m 2,2 C 4,5 C 0,0 km/h (0 Bft) 0,00 %
25.10.2014 21:30 4,3 C 85 % 1024,2 hPa 0,0 l/m 0,0 km/h (0 Bft) S 181 0 min 0,000 mm 0,0 UV-I 0 W/m 2,0 C 4,3 C 0,0 km/h (0 Bft) 0,00 %
25.10.2014 21:45 4,1 C 85 % 1024,2 hPa 0,0 l/m 0,0 km/h (0 Bft) S 181 0 min 0,000 mm 0,0 UV-I 0 W/m 1,8 C 4,1 C 0,0 km/h (0 Bft) 0,00 %
25.10.2014 22:00 4,0 C 85 % 1024,5 hPa 0,0 l/m 0,0 km/h (0 Bft) SW 225 0 min 0,000 mm 0,0 UV-I 0 W/m 1,7 C 4,0 C 0,0 km/h (0 Bft) 0,00 %
25.10.2014 22:15 3,9 C 86 % 1024,6 hPa 0,0 l/m 0,0 km/h (0 Bft) S-SW 200 0 min 0,000 mm 0,0 UV-I 0 W/m 1,8 C 3,9 C 0,0 km/h (0 Bft) 0,00 %
25.10.2014 22:30 4,2 C 86 % 1024,5 hPa 0,0 l/m 0,0 km/h (0 Bft) S 179 0 min 0,000 mm 0,0 UV-I 0 W/m 2,1 C 4,2 C 0,0 km/h (0 Bft) 0,00 %
25.10.2014 22:45 4,3 C 86 % 1024,7 hPa 0,0 l/m 0,0 km/h (0 Bft) S-SW 198 0 min 0,000 mm 0,0 UV-I 0 W/m 2,2 C 4,3 C 0,0 km/h (0 Bft) 0,00 %
25.10.2014 23:00 4,3 C 86 % 1024,9 hPa 0,0 l/m 0,0 km/h (0 Bft) S-SW 198 0 min 0,000 mm 0,0 UV-I 0 W/m 2,2 C 4,3 C 0,0 km/h (0 Bft) 0,00 %
25.10.2014 23:15 4,2 C 86 % 1024,8 hPa 0,0 l/m 0,0 km/h (0 Bft) S 185 0 min 0,000 mm 0,0 UV-I 0 W/m 2,1 C 4,2 C 0,0 km/h (0 Bft) 0,00 %
25.10.2014 23:30 4,1 C 86 % 1024,7 hPa 0,0 l/m 0,0 km/h (0 Bft) S 175 0 min 0,000 mm 0,0 UV-I 0 W/m 2,0 C 4,1 C 0,0 km/h (0 Bft) 0,00 %
25.10.2014 23:45 4,3 C 86 % 1024,9 hPa 0,0 l/m 0,0 km/h (0 Bft) S 182 0 min 0,000 mm 0,0 UV-I 0 W/m 2,2 C 4,3 C 0,0 km/h (0 Bft) 0,00 %
_ Min-Zeit 22:15 13:00 03:45 - 00:15 - - - - - - 22:00 22:15 00:15 00:00
Minimum _ 3,9 C 72 % 1020,1 hPa - 0,0 km/h (0 Bft) - - - - - - 1,7 C 3,9 C 0,0 km/h (0 Bft) 0,00 %
_ Max-Zeit 16:00 02:15 23:00 00:00 09:45 - - 10:00 00:00 13:15 13:15 00:00 16:00 09:45 00:00
Maximum _ 7,4 C 86 % 1024,9 hPa 0,0 l/m 4,3 km/h
O (1 Bft)
- - 15 min 0,000 mm 2,0 UV-I 562 W/m 4,4 C 7,4 C 7,9 km/h
O (2 Bft)
0,00 %
Durchschnitt _ 5,3 C 82 % 1021,9 hPa #0,0 l/m 0,4 km/h (0 Bft) O-SO - #7:30 h #0,000 mm 1,0 UV-I 288 W/m 2,5 C 5,3 C 1,0 km/h (0 Bft) 0,00 %